Regional Weather Roundup
Issued by NWS

Home | Current Version | Previous Version | Text Only | Print | Product List | Glossary Off
Versions: 1 2 3 4 5 6 7 8 9 10 11 12 13 14 15 16 17 18 19 20 21 22 23 24 25 26 27 28

000
ASUS42 KTBW 272316
RWRFL
FLORIDA REGIONAL WEATHER ROUNDUP
NATIONAL WEATHER SERVICE TAMPA BAY RUSKIN FL
700 PM EDT TUE SEP 27 2016

NOTE: "FAIR" INDICATES FEW OR NO CLOUDS BELOW 12,000 FEET WITH NO
SIGNIFICANT WEATHER AND/OR OBSTRUCTIONS TO VISIBILITY.

FLZ001>010-012>015-112-114-115-280000-
PANHANDLE FLORIDA

CITY           SKY/WX    TMP DP  RH WIND       PRES   REMARKS
PENSACOLA      CLOUDY    77  73  87 NW6       29.89F
PENSACOLA NAS  MOCLDY    78  75  90 NW6       29.89S
MILTON NAS     CLOUDY    75  71  87 W7        29.90
CRESTVIEW      MOCLDY    81  71  71 W7        29.91R
DUKE FIELD     MOCLDY    80  72  75 SW6       29.89S
VALPARAISO     MOCLDY    82  72  72 SW3       29.89S
MARY ESTHER    PTCLDY    82  71  68 SW7       29.88S
TRI COUNTY     FAIR      83  68  60 SW5       29.89
PANAMA CITY    FAIR      81  73  76 S6        29.89R
TYNDALL AFB    PTCLDY    82  72  71 SW8       29.90R
APALACHICOLA   CLEAR     84  73  69 W9        29.90R

STATION/POSITION SKY/WX   TEMP    WIND        PRES    WAVE   SWELL
                          AIR SEA DIR/SP/G            HT/PER HT/PER
                          (F)     (DEG/KT/KT) (MB)    (FT/S) (FT/S)
30.1N   87.6W              84 87  250/  6/  8 1012.2S   1
29.2N   88.2W              83 86  250/  8/ 10 1012.0F
28.8N   86.0W              83 86              1012.9R   1/ 5   2/ 5
PANAMA CITY BEAC           82 86  240/ 10/ 11 1012.5F
TOWER C                    83     280/  7/  8 1013.1R
28.5N   84.5W              84 86  230/  2/  4 1012.7R   1/ 5

$$
FLZ011-016>038-118-127-128-134-139-239-280000-
NORTH FLORIDA

CITY           SKY/WX    TMP DP  RH WIND       PRES   REMARKS
MARIANNA       PTCLDY    82  70  66 S9        29.88R
TALLAHASSEE    CLOUDY    78  69  73 W3        29.90R
PERRY          CLOUDY    82  73  74 CALM      29.90S
CROSS CITY     CLEAR     82  72  69 W6        29.90R
LAKE CITY      FAIR      82  70  65 CALM      29.89S
GAINESVILLE    CLEAR     85  69  58 NW3       29.88S
WILLISTON      CLEAR     86  73  66 MISG      29.89S
MAYPORT NAS    MOCLDY    80  70  71 NE8       29.89R
JACKSONVILLE   MOCLDY    81  70  69 E7        29.88R
JAX NAS        PTCLDY    87  71  58 E7        29.88S
FERNANDINA BEA FAIR      82  72  69 E5        29.88S
ST AUGUSTINE   CLEAR     82  70  66 NE6       29.90S
PALM COAST     CLEAR    N/A N/A N/A NE8       29.89F

STATION/POSITION SKY/WX   TEMP    WIND        PRES    WAVE   SWELL
                          AIR SEA DIR/SP/G            HT/PER HT/PER
                          (F)     (DEG/KT/KT) (MB)    (FT/S) (FT/S)
SHELL POINT                83     200/  8/ 10 1010.9
KEATON BEACH               83     250/  7/  9 1012.1R
CEDAR KEY                  84     270/  4/  6 1012.7F
FERNANDINA                 85 84   40/  2/  7 1012.0S
30.7N   81.3W                 83                N/A     2/13   2/13
MAYPORT                    81 84   60/  7/  8 1012.4F
31.4N   80.9W              80 83   90/  2/  4 1011.9R   2/10   2/10
ST AUGUSTINE               81 85   40/  7/  8 1012.9F

$$
FLZ040-043>046-052-053-057-058-063-144-280000-
INTERIOR CENTRAL FLORIDA

CITY           SKY/WX    TMP DP  RH WIND       PRES   REMARKS
OCALA          PTCLDY    82  66  57 N3        29.89F
THE VILLAGES     N/A     84  75  74 CALM      29.80R
LEESBURG       MOCLDY    79  73  82 S3        29.90S
SANFORD        CLEAR     82  68  62 CALM      29.90R
ORLANDO EXEC   PTCLDY    82  71  69 SW7       29.90R
ORLANDO INTL   MOCLDY    80  71  74 SW7       29.91R
KISSIMMEE      PTCLDY    81  71  71 SW5       29.92R
WINTER HAVEN   CLEAR     82  68  62 CALM      29.93R
LAKELAND       CLEAR     82  72  69 CALM      29.92R
BARTOW         FAIR      82  70  65 SE6       29.93R
OKEECHOBEE       N/A     72  70  94 SW6       29.94F

$$
FLZ041-047-054-059-064-141-147-280000-
EAST CENTRAL FLORIDA

CITY           SKY/WX    TMP DP  RH WIND       PRES   REMARKS
ORMOND BEACH   CLEAR     81  72  74 NE5       29.89S
DAYTONA BEACH  PTCLDY    81  72  74 E8        29.89S THUNDER
DELAND         CLOUDY    84  72  65 NW6       29.89R
NEW SMYRNA BEA PTCLDY    82  73  74 E9        29.89F
JFK SPACE CTR  TSTM      82  73  74 S8        29.90R
TITUSVILLE     RAIN      73  66  78 E7        29.93R
CAPE CANAVERAL PTCLDY    83  72  70 S9        29.90R
PATRICK AFB    TSTM      81  72  74 W25G32    29.93R
MELBOURNE      CLOUDY    75  71  87 SW14G24   29.92R
VERO BEACH     TSTM      74  71  91 W7        29.93S FOG
FT PIERCE      CLOUDY    77  73  87 S7        29.93F

STATION/POSITION SKY/WX   TEMP    WIND        PRES    WAVE   SWELL
                          AIR SEA DIR/SP/G            HT/PER HT/PER
                          (F)     (DEG/KT/KT) (MB)    (FT/S) (FT/S)
28.5N   80.2W              82 85  130/  8/ 10 1012.7R
TRIDENT PIER               82 86  130/  7/ 10 1012.4S
28.4N   80.5W                 86                N/A     2/ 9
27.5N   80.2W                 85                N/A     3/ 9   2/13

$$
FLZ050-056-061-142-242-148-248-149-249-151-251-155-255-
160-260-280000-
WEST CENTRAL FLORIDA

CITY           SKY/WX    TMP DP  RH WIND       PRES   REMARKS
CRYSTAL RIVER  FAIR      82  72  69 W5        29.89F
INVERNESS      FAIR      82  72  69 CALM      29.90S
BROOKSVILLE    PTCLDY    82  73  74 W7        29.91R
CLEARWATER AIR FAIR      82  72  69 W3        29.90S
ST PETE CLEARW CLEAR     84  72  67 NW7       29.90S
TAMPA INTL     MOCLDY    86  69  56 NW7       29.90S
TAMPA EXEC     CLEAR     84  73  70 CALM      29.91R
PLANT CITY     CLEAR     82  75  78 CALM      29.93R
MACDILL AFB    MOCLDY    87  72  60 W6        29.90R
PETER O KNIGHT CLEAR     88  72  58 NW5       29.91R
ST PETERSBURG  CLEAR     85  72  65 W7        29.89R
SARASOTA       CLEAR     86  72  62 W6        29.90R
VENICE         FAIR      84  72  65 W3        29.92R

STATION/POSITION SKY/WX   TEMP    WIND        PRES    WAVE   SWELL
                          AIR SEA DIR/SP/G            HT/PER HT/PER
                          (F)     (DEG/KT/KT) (MB)    (FT/S) (FT/S)
27.3N   84.2W                 87                N/A     1
CLEARWATER BEACH           84 87  260/  5/  9 1012.8F
MIDDLE TAMPA BAY                  310/  8/ 11 1012.9F
VENICE                     84 88  280/  2/  3 1012.6R

$$
FLZ066-069-070-075>078-162-262-165-265-280000-
SOUTHWEST FLORIDA AND KEYS

CITY           SKY/WX    TMP DP  RH WIND       PRES   REMARKS
PUNTA GORDA    HVY RAIN  75  73  93 E8        29.95R FOG
FT MYERS       MOCLDY    77  73  87 E5        29.93R
SOUTHWEST INTL CLOUDY    76  72  87 E8        29.93S
NAPLES         MOCLDY    78  72  81 SE7       29.91F
MARATHON       PTCLDY    77  73  87 S3        29.92F
KEY WEST NAS   PTCLDY    81  73  76 CALM      29.92F
KEY WEST INTL  CLEAR     82  74  76 SW3       29.93S

STATION/POSITION SKY/WX   TEMP    WIND        PRES    WAVE   SWELL
                          AIR SEA DIR/SP/G            HT/PER HT/PER
                          (F)     (DEG/KT/KT) (MB)    (FT/S) (FT/S)
NAPLES                        89              1013.3F
26.0N   85.6W              83 87  210/  6/  8 1013.4R   1/ 4
DRY TORTUGAS               84     190/  3/  3 1013.7R
SAND KEY                   83     220/  1/  2 1013.9F
LONG KEY                   79 83  200/  4/  5 1013.3F
MOLASSES REEF              77     320/  1     1013.2F

$$
FLZ067-068-071>074-168-172>174-280000-
SOUTHEAST FLORIDA

CITY           SKY/WX    TMP DP  RH WIND       PRES   REMARKS
W PALM BEACH   CLOUDY    76  71  85 W7        29.93F
FT LAUDER-EXEC CLOUDY    75  69  81 W5        29.92F
FT LAUDERDALE  MOCLDY    75  70  84 SW6       29.91F
POMPANO BEACH  CLOUDY    75  70  84 W8        29.92F
PEMBROKE PINES CLOUDY    74  70  87 W5        29.93F
OPA LOCKA      MOCLDY    74  69  85 W6        29.92F
MIAMI          CLOUDY    74  71  91 W5        29.92F
WEST KENDALL   CLOUDY    72  71  97 W5        29.91F
HOMESTEAD      MOCLDY    73  71  92 CALM      29.91S

STATION/POSITION SKY/WX   TEMP    WIND        PRES    WAVE   SWELL
                          AIR SEA DIR/SP/G            HT/PER HT/PER
                          (F)     (DEG/KT/KT) (MB)    (FT/S) (FT/S)
PORT EVERGLADES            75     220/  4/  8 1013.3F
VIRGINIA KEY               75 89  270/  9/ 13 1013.5F
LAKE WORTH                        220/  6/  9   N/A
FOWEY ROCKS                76 84  270/ 10/ 11 1013.5S
SETTLEMENT POINT           78     180/ 14/ 16 1014.3R

$$





USA.gov is the U.S. government's official web portal to all federal, state and local government web resources and services.